MQT2AD EDDH-EDDC

Flight info

Callsign MQT2AD
Flight time 0h 47m
Altitude 23000
Route RAMAR6G RAMAR Z998 NUSGU/N0408F270 Z998 OSKAN OSKAN4B
Aircraft B738/M-SDE2E3FGHIRWXY/LB1

Departure

Time 2026-05-01 10:02
Airport Hamburg Helmut Schmidt Airport (EDDH)

Arrival

Time 2026-05-01 10:50
Airport Dresden Airport (EDDC)
Time Latitude Longitude Altitude Speed Heading
2026-05-01 09:36 53.63195 10.00382 50 ft 0 kts 83°
2026-05-01 09:53 53.63193 10.00356 50 ft 4 kts 86°
2026-05-01 09:54 53.63193 10.00311 50 ft 4 kts 94°
2026-05-01 09:54 53.63196 10.00266 50 ft 4 kts 105°
2026-05-01 09:54 53.63206 10.00226 50 ft 4 kts 136°
2026-05-01 09:54 53.63221 10.00212 49 ft 1 kts 176°
2026-05-01 09:55 53.63225 10.00211 49 ft 0 kts 176°
2026-05-01 09:57 53.63223 10.00212 49 ft 0 kts 176°
2026-05-01 09:57 53.63214 10.00213 47 ft 3 kts 176°
2026-05-01 09:58 53.63188 10.00215 48 ft 5 kts 178°
2026-05-01 09:58 53.63146 10.00218 50 ft 7 kts 177°
2026-05-01 09:58 53.63091 10.00219 50 ft 8 kts 187°
2026-05-01 09:58 53.63031 10.00179 50 ft 10 kts 207°
2026-05-01 09:59 53.62974 10.00117 49 ft 9 kts 219°
2026-05-01 09:59 53.62935 10.00034 51 ft 9 kts 239°
2026-05-01 09:59 53.62909 9.99958 51 ft 6 kts 242°
2026-05-01 09:59 53.62901 9.99932 50 ft 2 kts 242°
2026-05-01 10:00 53.62896 9.99915 51 ft 2 kts 242°
2026-05-01 10:00 53.62888 9.99892 49 ft 3 kts 242°
2026-05-01 10:00 53.62877 9.99854 52 ft 4 kts 244°
2026-05-01 10:00 53.62865 9.99809 52 ft 5 kts 249°
2026-05-01 10:01 53.62874 9.99748 50 ft 7 kts 311°
2026-05-01 10:01 53.62880 9.99739 51 ft 0 kts 318°
2026-05-01 10:02 53.62900 9.99713 49 ft 19 kts 327°
2026-05-01 10:02 53.63270 9.99395 52 ft 103 kts 332°
2026-05-01 10:02 53.64118 9.98653 224 ft 156 kts 333°
2026-05-01 10:02 53.65166 9.97837 928 ft 172 kts 338°
2026-05-01 10:03 53.66240 9.97017 1995 ft 171 kts 333°
2026-05-01 10:03 53.67370 9.96005 2578 ft 193 kts 330°
2026-05-01 10:03 53.68621 9.94954 3202 ft 211 kts 343°
2026-05-01 10:03 53.70110 9.94673 3930 ft 221 kts
2026-05-01 10:04 53.71654 9.94704 5027 ft 223 kts
2026-05-01 10:04 53.73143 9.95443 6126 ft 226 kts 30°
2026-05-01 10:04 53.74296 9.97331 6971 ft 242 kts 60°
2026-05-01 10:04 53.75063 9.99960 7764 ft 258 kts 65°
2026-05-01 10:05 53.75856 10.02795 8503 ft 276 kts 64°
2026-05-01 10:05 53.76700 10.05784 9395 ft 285 kts 64°
2026-05-01 10:05 53.77574 10.08830 10335 ft 293 kts 64°
2026-05-01 10:05 53.78179 10.10927 10748 ft 306 kts 64°
2026-05-01 10:06 53.79139 10.14244 11340 ft 323 kts 64°
2026-05-01 10:06 53.80154 10.17764 11927 ft 340 kts 64°
2026-05-01 10:06 53.81197 10.21408 12737 ft 348 kts 64°
2026-05-01 10:06 53.82607 10.26344 13906 ft 355 kts 64°
2026-05-01 10:07 53.83337 10.28897 14495 ft 358 kts 64°
2026-05-01 10:07 53.84200 10.32869 15368 ft 363 kts 77°
2026-05-01 10:07 53.84407 10.37095 16209 ft 368 kts 94°
2026-05-01 10:07 53.83970 10.41375 17044 ft 372 kts 102°
2026-05-01 10:08 53.82781 10.50016 18621 ft 381 kts 103°
2026-05-01 10:08 53.82162 10.54416 19382 ft 386 kts 103°
2026-05-01 10:08 53.81548 10.58857 20118 ft 390 kts 103°
2026-05-01 10:09 53.80935 10.63355 20835 ft 394 kts 103°
2026-05-01 10:09 53.80269 10.67879 21509 ft 399 kts 109°
2026-05-01 10:09 53.79128 10.72168 22186 ft 402 kts 121°
2026-05-01 10:09 53.77660 10.76195 22899 ft 404 kts 122°
2026-05-01 10:10 53.76152 10.80267 23004 ft 412 kts 122°
2026-05-01 10:10 53.74633 10.84328 23005 ft 404 kts 122°
2026-05-01 10:10 53.71514 10.92184 23019 ft 403 kts 131°
2026-05-01 10:11 53.69469 10.95405 23017 ft 402 kts 143°
2026-05-01 10:11 53.67119 10.97963 23022 ft 402 kts 148°
2026-05-01 10:11 53.64758 11.00386 23017 ft 402 kts 149°
2026-05-01 10:11 53.62364 11.02810 23015 ft 402 kts 149°
2026-05-01 10:12 53.59966 11.05235 23016 ft 402 kts 149°
2026-05-01 10:12 53.57572 11.07667 23015 ft 401 kts 149°
2026-05-01 10:12 53.52793 11.12537 23015 ft 402 kts 149°
2026-05-01 10:13 53.50399 11.14968 23014 ft 402 kts 149°
2026-05-01 10:13 53.48001 11.17395 23017 ft 402 kts 149°
2026-05-01 10:13 53.45605 11.19816 23018 ft 402 kts 149°
2026-05-01 10:14 53.40818 11.24648 23016 ft 401 kts 149°
2026-05-01 10:14 53.38459 11.27026 23014 ft 401 kts 149°
2026-05-01 10:14 53.36066 11.29434 23017 ft 401 kts 149°
2026-05-01 10:14 53.33673 11.31838 23016 ft 402 kts 149°
2026-05-01 10:15 53.31274 11.34243 23015 ft 402 kts 149°
2026-05-01 10:15 53.28876 11.36645 23014 ft 401 kts 149°
2026-05-01 10:15 53.26533 11.39186 23017 ft 401 kts 142°
2026-05-01 10:15 53.24446 11.42286 23015 ft 402 kts 137°
2026-05-01 10:16 53.22386 11.45447 23016 ft 402 kts 137°
2026-05-01 10:16 53.20328 11.48600 23015 ft 402 kts 137°
2026-05-01 10:16 53.16208 11.54906 23018 ft 402 kts 137°
2026-05-01 10:17 53.14148 11.58058 23016 ft 402 kts 137°
2026-05-01 10:17 53.10033 11.64355 23013 ft 402 kts 137°
2026-05-01 10:17 53.07970 11.67504 23017 ft 402 kts 137°
2026-05-01 10:18 53.03876 11.73733 23013 ft 402 kts 137°
2026-05-01 10:18 53.01810 11.76869 23017 ft 402 kts 137°
2026-05-01 10:18 52.99753 11.79999 23014 ft 402 kts 136°
2026-05-01 10:19 52.97924 11.83514 23016 ft 402 kts 127°
2026-05-01 10:19 52.96229 11.87209 23016 ft 402 kts 127°
2026-05-01 10:19 52.94534 11.90913 23015 ft 402 kts 127°
2026-05-01 10:20 52.91153 11.98305 23018 ft 402 kts 127°
2026-05-01 10:20 52.89456 12.02000 23015 ft 402 kts 127°
2026-05-01 10:20 52.87765 12.05678 23016 ft 402 kts 127°
2026-05-01 10:20 52.86093 12.09311 23015 ft 402 kts 127°
2026-05-01 10:21 52.84398 12.12999 23015 ft 402 kts 127°
2026-05-01 10:21 52.81012 12.20358 23030 ft 403 kts 127°
2026-05-01 10:21 52.79305 12.24052 23401 ft 405 kts 127°
2026-05-01 10:22 52.75862 12.31486 24198 ft 410 kts 127°
2026-05-01 10:22 52.72374 12.38998 24937 ft 414 kts 127°
2026-05-01 10:23 52.70452 12.42546 25284 ft 416 kts 138°
2026-05-01 10:23 52.65624 12.47859 25921 ft 421 kts 149°
2026-05-01 10:23 52.63109 12.50336 26174 ft 422 kts 149°
2026-05-01 10:24 52.58045 12.55292 26677 ft 424 kts 149°
2026-05-01 10:24 52.52997 12.60266 26999 ft 429 kts 149°
2026-05-01 10:25 52.47822 12.65347 27014 ft 437 kts 149°
2026-05-01 10:25 52.42659 12.70391 27014 ft 428 kts 149°
2026-05-01 10:26 52.40096 12.72892 27014 ft 428 kts 149°
2026-05-01 10:26 52.37539 12.75385 27015 ft 427 kts 149°
2026-05-01 10:26 52.32432 12.80353 27014 ft 427 kts 149°
2026-05-01 10:27 52.27317 12.85311 27015 ft 427 kts 149°
2026-05-01 10:27 52.22208 12.90262 27014 ft 427 kts 149°
2026-05-01 10:28 52.19657 12.92746 27015 ft 427 kts 149°
2026-05-01 10:28 52.14549 12.97714 27018 ft 427 kts 149°
2026-05-01 10:28 52.11997 13.00184 27017 ft 427 kts 149°
2026-05-01 10:29 52.06920 13.05085 27015 ft 427 kts 149°
2026-05-01 10:29 52.04362 13.07552 27015 ft 427 kts 149°
2026-05-01 10:30 51.99247 13.12476 27014 ft 427 kts 149°
2026-05-01 10:30 51.94125 13.17392 27016 ft 427 kts 149°
2026-05-01 10:31 51.89006 13.22292 27017 ft 428 kts 149°
2026-05-01 10:31 51.83880 13.27183 27015 ft 427 kts 149°
2026-05-01 10:32 51.78750 13.32062 26884 ft 430 kts 150°
2026-05-01 10:32 51.76179 13.34496 26520 ft 427 kts 150°
2026-05-01 10:32 51.71079 13.39314 25319 ft 424 kts 150°
2026-05-01 10:33 51.66033 13.44075 24088 ft 422 kts 150°
2026-05-01 10:33 51.60981 13.48827 22837 ft 419 kts 150°
2026-05-01 10:34 51.58476 13.51178 22208 ft 417 kts 150°
2026-05-01 10:34 51.55964 13.53533 21597 ft 416 kts 150°
2026-05-01 10:34 51.53466 13.55872 20972 ft 414 kts 150°
2026-05-01 10:35 51.48511 13.60500 19723 ft 410 kts 150°
2026-05-01 10:35 51.45912 13.62295 19097 ft 407 kts 166°
2026-05-01 10:35 51.43110 13.62810 18485 ft 404 kts 178°
2026-05-01 10:35 51.40303 13.62936 17860 ft 402 kts 179°
2026-05-01 10:36 51.34746 13.62931 16618 ft 397 kts 180°
2026-05-01 10:36 51.31987 13.62933 15990 ft 391 kts 180°
2026-05-01 10:36 51.29295 13.62972 15240 ft 381 kts 179°
2026-05-01 10:37 51.26682 13.63028 14488 ft 370 kts 179°
2026-05-01 10:37 51.21706 13.63110 13004 ft 350 kts 180°
2026-05-01 10:37 51.19347 13.62485 12261 ft 340 kts 201°
2026-05-01 10:38 51.17367 13.60527 11533 ft 331 kts 218°
2026-05-01 10:38 51.15597 13.58232 10788 ft 324 kts 220°
2026-05-01 10:38 51.13914 13.55889 10046 ft 318 kts 222°
2026-05-01 10:38 51.12281 13.53572 9307 ft 312 kts 221°
2026-05-01 10:39 51.10662 13.51316 8553 ft 306 kts 221°
2026-05-01 10:39 51.09055 13.49123 7881 ft 301 kts 220°
2026-05-01 10:39 51.07486 13.47002 7397 ft 294 kts 220°
2026-05-01 10:39 51.05947 13.44918 6922 ft 286 kts 221°
2026-05-01 10:40 51.04458 13.42893 6422 ft 277 kts 221°
2026-05-01 10:40 51.03030 13.40950 5984 ft 268 kts 221°
2026-05-01 10:40 51.01646 13.39070 5632 ft 253 kts 221°
2026-05-01 10:40 51.00331 13.37280 5391 ft 246 kts 221°
2026-05-01 10:41 50.99048 13.35538 5155 ft 240 kts 221°
2026-05-01 10:41 50.97673 13.34120 4929 ft 235 kts 198°
2026-05-01 10:41 50.94783 13.35056 4441 ft 215 kts 137°
2026-05-01 10:42 50.93830 13.36805 4216 ft 205 kts 131°
2026-05-01 10:42 50.92916 13.38492 3966 ft 199 kts 131°
2026-05-01 10:42 50.92019 13.40138 3769 ft 196 kts 131°
2026-05-01 10:42 50.91193 13.41826 3569 ft 193 kts 116°
2026-05-01 10:43 50.90916 13.43879 3594 ft 194 kts 89°
2026-05-01 10:43 50.91222 13.45926 3634 ft 188 kts 63°
2026-05-01 10:43 50.92013 13.47495 3618 ft 180 kts 38°
2026-05-01 10:43 50.92955 13.48771 3590 ft 177 kts 38°
2026-05-01 10:44 50.93881 13.50031 3582 ft 175 kts 40°
2026-05-01 10:44 50.94789 13.51269 3569 ft 168 kts 41°
2026-05-01 10:44 50.95641 13.52431 3573 ft 155 kts 41°
2026-05-01 10:44 50.96444 13.53526 3605 ft 150 kts 40°
2026-05-01 10:45 50.97213 13.54575 3585 ft 149 kts 40°
2026-05-01 10:45 50.97992 13.55635 3595 ft 145 kts 40°
2026-05-01 10:45 50.98770 13.56697 3573 ft 147 kts 40°
2026-05-01 10:45 50.99541 13.57749 3583 ft 148 kts 40°
2026-05-01 10:46 51.00314 13.58803 3600 ft 145 kts 40°
2026-05-01 10:46 51.01089 13.59866 3590 ft 145 kts 40°
2026-05-01 10:46 51.01869 13.60930 3480 ft 150 kts 40°
2026-05-01 10:46 51.02640 13.61986 3320 ft 146 kts 40°
2026-05-01 10:47 51.03410 13.63039 3097 ft 144 kts 40°
2026-05-01 10:47 51.04171 13.64081 2922 ft 145 kts 40°
2026-05-01 10:47 51.04932 13.65122 2735 ft 144 kts 40°
2026-05-01 10:47 51.05688 13.66157 2522 ft 143 kts 40°
2026-05-01 10:48 51.06440 13.67187 2350 ft 143 kts 40°
2026-05-01 10:48 51.07193 13.68219 2165 ft 142 kts 40°
2026-05-01 10:48 51.07942 13.69247 1982 ft 142 kts 40°
2026-05-01 10:48 51.08679 13.70258 1792 ft 141 kts 41°
2026-05-01 10:49 51.09421 13.71279 1600 ft 141 kts 40°
2026-05-01 10:49 51.10162 13.72296 1395 ft 140 kts 40°
2026-05-01 10:49 51.10902 13.73312 1207 ft 140 kts 40°
2026-05-01 10:49 51.11626 13.74309 1016 ft 134 kts 40°
2026-05-01 10:50 51.12324 13.75257 812 ft 127 kts 39°
2026-05-01 10:50 51.12948 13.76125 754 ft 108 kts 41°
2026-05-01 10:50 51.13293 13.76584 743 ft 39 kts 40°
2026-05-01 10:50 51.13470 13.76841 733 ft 33 kts 41°
2026-05-01 10:51 51.13636 13.77072 731 ft 30 kts 40°
2026-05-01 10:51 51.13793 13.77287 729 ft 29 kts 40°
2026-05-01 10:51 51.13879 13.77410 725 ft 12 kts 53°
2026-05-01 10:51 51.13877 13.77543 722 ft 13 kts 119°
2026-05-01 10:52 51.13825 13.77650 721 ft 6 kts 129°
2026-05-01 10:52 51.13822 13.77656 721 ft 0 kts 130°
2026-05-01 10:52 51.13820 13.77660 723 ft 2 kts 129°
2026-05-01 10:52 51.13798 13.77694 719 ft 7 kts 143°
2026-05-01 10:53 51.13744 13.77693 717 ft 9 kts 204°
2026-05-01 10:53 51.13701 13.77645 722 ft 6 kts 220°
2026-05-01 10:53 51.13677 13.77612 723 ft 3 kts 220°
2026-05-01 10:53 51.13665 13.77596 721 ft 0 kts 220°
2026-05-01 10:54 51.13653 13.77579 723 ft 6 kts 220°
2026-05-01 10:54 51.13603 13.77509 727 ft 12 kts 221°
2026-05-01 10:54 51.13540 13.77423 726 ft 12 kts 220°
2026-05-01 10:54 51.13481 13.77340 727 ft 11 kts 221°
2026-05-01 10:55 51.13419 13.77258 728 ft 12 kts 219°
2026-05-01 10:55 51.13357 13.77173 730 ft 11 kts 221°
2026-05-01 10:55 51.13304 13.77099 733 ft 9 kts 221°
2026-05-01 10:55 51.13257 13.77034 734 ft 8 kts 220°
2026-05-01 10:56 51.13217 13.76981 736 ft 7 kts 220°
2026-05-01 10:56 51.13159 13.76900 741 ft 14 kts 221°
2026-05-01 10:56 51.13059 13.76764 741 ft 24 kts 220°
2026-05-01 10:56 51.12940 13.76603 744 ft 21 kts 221°
2026-05-01 10:57 51.12853 13.76497 745 ft 11 kts 201°
2026-05-01 10:57 51.12814 13.76497 747 ft 7 kts 164°
2026-05-01 10:57 51.12777 13.76540 751 ft 6 kts 140°
2026-05-01 10:57 51.12740 13.76555 751 ft 5 kts 179°
2026-05-01 10:58 51.12713 13.76544 750 ft 4 kts 206°
2026-05-01 10:58 51.12695 13.76527 751 ft 2 kts 215°
2026-05-01 10:58 51.12680 13.76509 750 ft 2 kts 218°
2026-05-01 10:58 51.12669 13.76495 752 ft 2 kts 220°
2026-05-01 10:59 51.12662 13.76486 752 ft 2 kts 220°